When you browse on this site, cookies collect data to enhance your experience and personalize the content and advertising you see.
Visit our Privacy Policy to learn more. By continuing to use the site, you agree to this use of cookies and data.
  • In Deutschland
  • Länderverzeichnis
  • Für 7 Tage
  • Wassertemperatur
  • Satellitenkarten
  • Wetterkarte
  • Widgets
  • user-avatar
    Anmelden

    Stündliche Wetter Batina

    Heute, 25 April, Donnerstag

    Zeit Temperatur Niederschläge Wind Luftdruck Luftfeuchtigkeit
    00:00 +13°C° 0 mm 2 m/S 669 mmHg 85%
    01:00 +13°C° 0 mm 1 m/S 669 mmHg 81%
    02:00 +13°C° 0 mm 1 m/S 669 mmHg 77%
    03:00 +13°C° 0 mm 1 m/S 669 mmHg 74%
    04:00 +14°C° 0 mm 1 m/S 669 mmHg 68%
    05:00 +15°C° 0 mm 1 m/S 670 mmHg 62%
    06:00 +16°C° 0 mm 1 m/S 670 mmHg 57%
    07:00 +19°C° 0 mm 1 m/S 671 mmHg 48%
    08:00 +21°C° 0 mm 1 m/S 671 mmHg 39%
    09:00 +23°C° 0 mm 1 m/S 672 mmHg 31%
    10:00 +24°C° 0 mm 1 m/S 672 mmHg 27%
    11:00 +25°C° 0 mm 2 m/S 673 mmHg 24%
    12:00 +27°C° 0 mm 2 m/S 673 mmHg 20%
    13:00 +27°C° 0 mm 3 m/S 673 mmHg 19%
    14:00 +28°C° 0 mm 4 m/S 672 mmHg 17%
    15:00 +28°C° 0 mm 5 m/S 672 mmHg 16%
    16:00 +27°C° 0 mm 4 m/S 672 mmHg 18%
    17:00 +25°C° 0 mm 4 m/S 672 mmHg 21%
    18:00 +23°C° 0 mm 4 m/S 671 mmHg 23%
    19:00 +21°C° 0 mm 3 m/S 671 mmHg 30%
    20:00 +20°C° 0 mm 2 m/S 671 mmHg 36%
    21:00 +19°C° 0 mm 1 m/S 671 mmHg 43%
    22:00 +18°C° 0 mm 1 m/S 671 mmHg 48%
    23:00 +18°C° 0 mm 1 m/S 671 mmHg 54%

    Morgen, 26 April, Freitag

    Zeit Temperatur Niederschläge Wind Luftdruck Luftfeuchtigkeit
    00:00 +15°C° 0 mm 0 m/S 671 mmHg 59%
    01:00 +16°C° 0 mm 1 m/S 671 mmHg 65%
    02:00 +15°C° 0 mm 1 m/S 671 mmHg 70%
    03:00 +15°C° 0 mm 1 m/S 671 mmHg 75%
    04:00 +15°C° 0 mm 2 m/S 672 mmHg 78%
    05:00 +15°C° 0 mm 2 m/S 672 mmHg 81%
    06:00 +14°C° 0 mm 3 m/S 672 mmHg 84%
    07:00 +16°C° 0 mm 3 m/S 673 mmHg 74%
    08:00 +18°C° 0 mm 3 m/S 673 mmHg 65%
    09:00 +19°C° 0 mm 3 m/S 674 mmHg 55%
    10:00 +20°C° 0 mm 3 m/S 674 mmHg 49%
    11:00 +22°C° 0 mm 3 m/S 674 mmHg 43%
    12:00 +24°C° 0 mm 3 m/S 675 mmHg 38%
    13:00 +23°C° 0 mm 4 m/S 674 mmHg 39%
    14:00 +23°C° 0 mm 5 m/S 674 mmHg 40%
    15:00 +22°C° 0 mm 6 m/S 674 mmHg 41%
    16:00 +20°C° 0.1 mm 6 m/S 673 mmHg 52%
    17:00 +17°C° 0.1 mm 6 m/S 673 mmHg 63%
    18:00 +15°C° 0.1 mm 5 m/S 673 mmHg 74%
    19:00 +14°C° 0 mm 5 m/S 673 mmHg 77%
    20:00 +14°C° 0 mm 5 m/S 674 mmHg 80%
    21:00 +13°C° 0 mm 4 m/S 674 mmHg 83%
    22:00 +13°C° 0 mm 4 m/S 674 mmHg 82%
    23:00 +12°C° 0 mm 4 m/S 674 mmHg 82%

    übermorgen, 27 April, Samstag

    Zeit Temperatur Niederschläge Wind Luftdruck Luftfeuchtigkeit
    00:00 +12°C° 0 mm 4 m/S 674 mmHg 82%
    01:00 +11°C° 0 mm 3 m/S 674 mmHg 82%
    02:00 +11°C° 0 mm 3 m/S 674 mmHg 81%
    03:00 +10°C° 0 mm 3 m/S 673 mmHg 81%
    04:00 +10°C° 0 mm 3 m/S 673 mmHg 80%
    05:00 +10°C° 0 mm 3 m/S 674 mmHg 80%
    06:00 +10°C° 0 mm 3 m/S 674 mmHg 79%
    07:00 +11°C° 0 mm 3 m/S 674 mmHg 70%
    08:00 +13°C° 0 mm 3 m/S 675 mmHg 60%
    09:00 +15°C° 0 mm 2 m/S 675 mmHg 51%
    10:00 +16°C° 0 mm 2 m/S 675 mmHg 47%
    11:00 +18°C° 0 mm 2 m/S 676 mmHg 44%
    12:00 +20°C° 0 mm 1 m/S 676 mmHg 40%
    13:00 +19°C° 0 mm 2 m/S 675 mmHg 38%
    14:00 +20°C° 0 mm 2 m/S 675 mmHg 35%
    15:00 +20°C° 0 mm 3 m/S 675 mmHg 33%
    16:00 +19°C° 0 mm 4 m/S 675 mmHg 37%
    17:00 +18°C° 0 mm 4 m/S 674 mmHg 41%
    18:00 +16°C° 0 mm 5 m/S 674 mmHg 45%
    19:00 +14°C° 0 mm 4 m/S 674 mmHg 53%
    20:00 +13°C° 0 mm 4 m/S 674 mmHg 62%
    21:00 +12°C° 0 mm 3 m/S 674 mmHg 70%
    22:00 +12°C° 0 mm 2 m/S 674 mmHg 73%
    23:00 +12°C° 0 mm 1 m/S 674 mmHg 76%

    28 April, Sonntag

    Zeit Temperatur Niederschläge Wind Luftdruck Luftfeuchtigkeit
    00:00 +11°C° 0 mm 1 m/S 674 mmHg 79%
    01:00 +11°C° 0 mm 1 m/S 673 mmHg 80%
    02:00 +10°C° 0 mm 1 m/S 673 mmHg 81%
    03:00 +9°C° 0 mm 0 m/S 673 mmHg 82%
    04:00 +9°C° 0 mm 0 m/S 673 mmHg 79%
    05:00 +10°C° 0 mm 0 m/S 673 mmHg 76%
    06:00 +10°C° 0 mm 0 m/S 673 mmHg 73%
    07:00 +13°C° 0 mm 1 m/S 674 mmHg 64%
    08:00 +15°C° 0 mm 2 m/S 674 mmHg 54%
    09:00 +16°C° 0 mm 2 m/S 675 mmHg 45%
    10:00 +18°C° 0 mm 3 m/S 675 mmHg 40%
    11:00 +19°C° 0 mm 3 m/S 675 mmHg 35%
    12:00 +20°C° 0 mm 4 m/S 674 mmHg 30%
    13:00 +20°C° 0 mm 4 m/S 674 mmHg 29%
    14:00 +21°C° 0 mm 4 m/S 673 mmHg 29%
    15:00 +21°C° 0 mm 4 m/S 673 mmHg 28%
    16:00 +20°C° 0 mm 4 m/S 673 mmHg 31%
    17:00 +20°C° 0 mm 3 m/S 672 mmHg 34%
    18:00 +19°C° 0 mm 3 m/S 672 mmHg 36%
    19:00 +17°C° 0 mm 2 m/S 672 mmHg 44%
    20:00 +16°C° 0 mm 2 m/S 672 mmHg 52%
    21:00 +15°C° 0 mm 1 m/S 672 mmHg 60%
    22:00 +14°C° 0 mm 1 m/S 672 mmHg 61%
    23:00 +14°C° 0 mm 1 m/S 671 mmHg 63%

    29 April, Montag

    Zeit Temperatur Niederschläge Wind Luftdruck Luftfeuchtigkeit
    00:00 +13°C° 0 mm 1 m/S 671 mmHg 64%
    01:00 +13°C° 0 mm 1 m/S 671 mmHg 61%
    02:00 +13°C° 0 mm 1 m/S 671 mmHg 59%
    03:00 +13°C° 0 mm 2 m/S 670 mmHg 56%
    04:00 +13°C° 0 mm 2 m/S 671 mmHg 53%
    05:00 +14°C° 0 mm 2 m/S 671 mmHg 51%
    06:00 +14°C° 0 mm 2 m/S 671 mmHg 48%
    07:00 +16°C° 0 mm 3 m/S 672 mmHg 43%
    08:00 +18°C° 0 mm 4 m/S 672 mmHg 37%
    09:00 +20°C° 0 mm 5 m/S 672 mmHg 32%
    10:00 +21°C° 0 mm 5 m/S 672 mmHg 32%
    11:00 +22°C° 0 mm 6 m/S 672 mmHg 31%
    12:00 +23°C° 0 mm 6 m/S 672 mmHg 31%
    13:00 +23°C° 0 mm 6 m/S 671 mmHg 31%
    14:00 +23°C° 0 mm 5 m/S 671 mmHg 30%
    15:00 +23°C° 0 mm 5 m/S 671 mmHg 30%
    16:00 +22°C° 0 mm 4 m/S 670 mmHg 36%
    17:00 +20°C° 0 mm 3 m/S 670 mmHg 42%
    18:00 +19°C° 0 mm 2 m/S 670 mmHg 47%
    19:00 +18°C° 0 mm 2 m/S 670 mmHg 56%
    20:00 +17°C° 0 mm 2 m/S 670 mmHg 65%
    21:00 +15°C° 0 mm 2 m/S 670 mmHg 73%
    22:00 +15°C° 0 mm 2 m/S 670 mmHg 76%
    23:00 +14°C° 0 mm 1 m/S 670 mmHg 78%

    30 April, Dienstag

    Zeit Temperatur Niederschläge Wind Luftdruck Luftfeuchtigkeit
    00:00 +13°C° 0 mm 1 m/S 670 mmHg 81%
    01:00 +13°C° 0 mm 1 m/S 669 mmHg 78%
    02:00 +13°C° 0 mm 1 m/S 669 mmHg 74%
    03:00 +13°C° 0 mm 1 m/S 669 mmHg 71%
    04:00 +14°C° 0 mm 1 m/S 669 mmHg 66%
    05:00 +14°C° 0 mm 1 m/S 669 mmHg 61%
    06:00 +15°C° 0 mm 1 m/S 670 mmHg 56%
    07:00 +18°C° 0 mm 1 m/S 670 mmHg 50%
    08:00 +18°C° 0 mm 2 m/S 671 mmHg 43%
    09:00 +20°C° 0 mm 2 m/S 671 mmHg 37%
    10:00 +21°C° 0 mm 3 m/S 671 mmHg 34%
    11:00 +22°C° 0 mm 3 m/S 671 mmHg 31%
    12:00 +23°C° 0 mm 4 m/S 671 mmHg 28%
    13:00 +23°C° 0 mm 4 m/S 671 mmHg 27%
    14:00 +25°C° 0 mm 4 m/S 670 mmHg 26%
    15:00 +25°C° 0 mm 5 m/S 670 mmHg 25%
    16:00 +23°C° 0 mm 4 m/S 669 mmHg 31%
    17:00 +21°C° 0 mm 4 m/S 669 mmHg 37%
    18:00 +20°C° 0 mm 3 m/S 669 mmHg 43%
    19:00 +19°C° 0 mm 2 m/S 669 mmHg 51%
    20:00 +18°C° 0 mm 2 m/S 669 mmHg 59%
    21:00 +18°C° 0 mm 1 m/S 669 mmHg 66%
    22:00 +16°C° 0 mm 1 m/S 669 mmHg 68%
    23:00 +15°C° 0 mm 1 m/S 668 mmHg 70%
    Mehr zeigen